Location: *
(45.0500°N, 12.0500°E)
Time: 13:25:56
(UTC+00:00)

Abrixas rocket - Pass Details

Date: 09 April 2020
Orbit: 345 x 352 km, 48.4° (Epoch: 25 May)

Event Time Altitude Azimuth Distance (km) Brightness Sun altitude
Rises 18:24:25 0° 289° (WNW) 2,158 8.7 -6.7°
Reaches altitude 10° 18:26:27 10° 294° (WNW) 1,317 6.6 -7.0°
Maximum altitude 18:29:21 53° 13° (NNE) 441 2.4 -7.5°
Enters shadow 18:32:13 10° 92° (E) 1,308 4.1 -8.0°
